Kapolei, HI

9:21 AM HST on December 07, 2016 (GMT -1000)
Kalaeloa (John Rodgers Field)

Weather History for PHJR - December, 2013

Change the Weather History Date:

Wednesday, December 11, 2013

  Actual Average (PHNL) Record (PHNL)
Temperature  
Mean Temperature 74 °F 75 °F  
Max Temperature 80 °F 82 °F 88 °F (1995)
Min Temperature 68 °F 69 °F 55 °F (1972)
Degree Days  
Heating Degree Days 0 0  
Month to date heating degree days 0  
Since 1 July heating degree days 0  
Cooling Degree Days 9 10  
Month to date cooling degree days 117  
Year to date cooling degree days 4443  
Growing Degree Days 24 (Base 50)    
Moisture  
Dew Point 66 °F    
Average Humidity 79    
Maximum Humidity 93    
Minimum Humidity 62    
Precipitation  
Precipitation 0.00 in 0.10 in 3.35 in (2008)
Month to date precipitation 0.97  
Year to date precipitation 14.83  
Snow  
Snow 0.00 in - - ()
Month to date snowfall  
Since 1 July snowfall  
Snow Depth -    
Sea Level Pressure  
Sea Level Pressure 30.03 in    
Wind  
Wind Speed 3 mph (East)    
Max Wind Speed 10 mph    
Max Gust Speed 16 mph    
Visibility 10 miles    
Events Rain    
T = Trace of Precipitation, MM = Missing Value Source: NWS Daily Summary

Daily Weather History Graph

Daily Weather History Graph

Search for Another Location

Airport or City:

Trip Planner

Search our weather history database for the weather conditions in past years. The results will help you decide how hot, cold, wet, or windy it might be!

Date:

Astronomy

Dec. 11, 2013 Rise Set
Actual Time 6:59 AM HST 5:51 PM HST
Civil Twilight 6:35 AM HST 6:15 PM HST
Nautical Twilight 6:08 AM HST 6:43 PM HST
Astronomical Twilight 5:40 AM HST 7:10 PM HST
Moon 2:03 PM HST (12/11) 2:04 AM HST (12/11)
Length of Visible Light 11h 40m
Length of Day
10h 51m
Waxing Gibbous, 73% of the Moon is Illuminated
Dec 11
Waxing Gibbous
Dec 16
Full
Dec 25
Last Quarter
Jan 1
New
Jan 7
First Quarter

Hourly Weather History & Observations

Time (HST) Temp. Heat Index Dew Point Humidity Pressure Visibility Wind Dir Wind Speed Gust Speed Precip Events Conditions
12:53 AM 71.1 °F - 66.9 °F 87% 30.05 in 10.0 mi Calm Calm - N/A   Mostly Cloudy
1:53 AM 70.0 °F - 66.9 °F 90% 30.04 in 10.0 mi Calm Calm - N/A   Partly Cloudy
2:53 AM 69.1 °F - 66.9 °F 93% 30.03 in 10.0 mi Variable 3.5 mph - N/A   Partly Cloudy
3:53 AM 68.0 °F - 66.0 °F 93% 30.02 in 10.0 mi Calm Calm - N/A   Clear
4:38 AM 69.8 °F - 66.2 °F 88% 30.00 in 10.0 mi Calm Calm - N/A   Overcast
4:53 AM 70.0 °F - 66.9 °F 90% 30.03 in 10.0 mi Calm Calm - N/A   Mostly Cloudy
5:53 AM 69.1 °F - 66.9 °F 93% 30.04 in 10.0 mi Calm Calm - N/A   Clear
6:53 AM 68.0 °F - 64.9 °F 90% 30.05 in 10.0 mi Calm Calm - N/A   Clear
7:53 AM 71.1 °F - 66.0 °F 84% 30.06 in 10.0 mi Variable 3.5 mph - N/A   Clear
8:53 AM 75.9 °F - 66.9 °F 74% 30.08 in 10.0 mi Variable 3.5 mph - N/A   Clear
9:53 AM 78.1 °F - 66.0 °F 66% 30.09 in 10.0 mi ENE 8.1 mph - N/A   Partly Cloudy
10:53 AM 80.1 °F 82.1 °F 66.0 °F 62% 30.07 in 10.0 mi Variable 6.9 mph - N/A   Clear
11:53 AM 79.0 °F - 66.9 °F 66% 30.04 in 10.0 mi Variable 6.9 mph - N/A   Mostly Cloudy
12:53 PM 80.1 °F 82.3 °F 66.9 °F 64% 30.01 in 10.0 mi East 10.4 mph - N/A   Mostly Cloudy
1:23 PM 78.8 °F - 68.0 °F 69% 29.98 in 10.0 mi East 6.9 mph - N/A   Mostly Cloudy
1:49 PM 78.8 °F - 69.8 °F 74% 29.97 in 10.0 mi East 6.9 mph - N/A   Mostly Cloudy
1:53 PM 77.0 °F - 70.0 °F 79% 29.99 in 9.0 mi East 8.1 mph - 0.00 in Rain Light Rain
2:53 PM 80.1 °F 82.9 °F 69.1 °F 69% 29.98 in 10.0 mi Variable 4.6 mph - 0.00 in   Mostly Cloudy
3:53 PM 77.0 °F - 64.9 °F 66% 29.98 in 10.0 mi East 6.9 mph 16.1 mph N/A   Overcast
4:53 PM 77.0 °F - 63.0 °F 62% 29.98 in 10.0 mi ENE 8.1 mph 16.1 mph N/A   Clear
5:53 PM 75.0 °F - 64.0 °F 69% 30.01 in 10.0 mi Variable 5.8 mph - N/A   Mostly Cloudy
6:53 PM 72.0 °F - 64.0 °F 76% 30.03 in 10.0 mi Variable 5.8 mph - N/A   Clear
7:53 PM 70.0 °F - 64.0 °F 81% 30.05 in 10.0 mi ENE 3.5 mph - N/A   Clear
8:53 PM 70.0 °F - 64.0 °F 81% 30.06 in 10.0 mi ENE 4.6 mph - N/A   Clear
9:53 PM 69.1 °F - 64.0 °F 84% 30.08 in 10.0 mi Calm Calm - N/A   Clear
10:53 PM 70.0 °F - 64.9 °F 84% 30.09 in 10.0 mi Calm Calm - N/A   Mostly Cloudy
11:53 PM 69.1 °F - 64.9 °F 87% 30.08 in 10.0 mi Calm Calm - N/A   Mostly Cloudy